Location: Joplin, MO
(37.0842°N, 94.5133°W)
Time: 11:16:27
(UTC+02:00)

Transit 2A - Pass Details

Date: 01 April 2023
Orbit: 591 x 964 km, 66.7° (Epoch: 03 June)

Event Time Altitude Azimuth Distance (km) Brightness Sun altitude
Exits shadow 12:53:02 16° 285° (WNW) 2,042 7.7 -14.7°
Maximum altitude 12:55:14 20° 314° (NW) 1,892 7.8 -14.3°
Drops below altitude 10° 12:59:29 10° 360° (N) 2,577 8.9 -13.4°
Sets 13:02:51 0° 17° (NNE) 3,576 9.9 -12.8°
